User: anonymous   Login
Location: Albany
(35.0000°S, 118.0000°E)
Time: 05:43:34
(UTC-04:00)
Language:

Atlas Centaur 2 - Orbit

View from above orbital plane
View from above orbital plane
View from above satellite
View from above satellite

Ground track
Ground track

The orbit data is extracted from the following two-line orbital elements,

1 00694U 63047A   15088.87301291  .00002465  00000-0  31266-3 0  9990
2 00694 030.3591 299.5445 0593157 206.8299 275.6372 14.00815990568947
Epoch (UTC): 29 March 2015 20:57:08
Eccentricity: 0.0593157
inclination: 30.3591°
perigee height: 460 km
apogee height: 1322 km
right ascension of ascending node: 299.5445°
argument of perigee: 206.8299°
revolutions per day: 14.00815990
mean anomaly at epoch: 275.6372°
orbit number at epoch: 56894

The dashed part of the orbit path shows where the satellite is in the earth's shadow,  

DLR